Weather in Iloilo City

Philippines     10°45′15″N   122°32′04″E
temp.,
°C
wind,
m/s
gust,
m/s
humid.,
%
clouds,
%
prec.,
mm/h
press.,
hPa
HPBL,
m
24 may, tue
tue2423:00+27wsw357914 0.4 1011187
02:00+26sw238344 1.6 1010140
05:00+26nnw118176 0.0 1010126
08:00+28ne22765 0.0 1012381
11:00+32e115972 0.0 10111038
14:00+32sse326031 0.1 10091154
17:00+30s226889 0.6 1009387
20:00+28s117598 0.7 101184
25 may, wed
wed2523:00+27wnw118062 0.6 101121
02:00+26nne228587 0.6 101060
05:00+25nne248961 0.0 1010116
08:00+29ne3476100 0.0 1010545
11:00+32ne3460100 0.0 10091288
14:00+33e3354100 0.0 10071522
17:00+31se2367100 0.3 1007374
20:00+27s118093 1.8 100938
26 may, thu
thu2623:00+27wnw0182100 0.8 101025
02:00+26n1185100 1.1 100822
05:00+25n118797 0.6 100848
08:00+28ne227758 0.8 1010389
11:00+32sse125991 0.1 10081229
14:00+31s326399 0.2 10061050
17:00+29ssw3373100 1.3 1006333
20:00+27sw3481100 2.2 1008198
27 may, fri
fri2723:00+26sw3583100 0.6 1009182
02:00+26wsw2484100 0.9 1008198
05:00+26wsw228386 0.3 100866
08:00+27ssw2481100 1.3 1009277
11:00+29ssw4472100 1.6 1009865
14:00+30ssw4465100 1.8 1007951
17:00+28ssw447188 0.3 1006596
20:00+26ssw368692 5.5 1008196
28 may, sat
sat2823:00+26sw478499 2.0 1009297
02:00+25sw368490 3.0 1008260
05:00+25sw348289 0.9 1008171
08:00+28ssw347156 1.4 1009578
11:00+29ssw456661 0.3 1009948
14:00+27sw687896 1.3 1008616
17:00+27ssw698597 2.0 1008744
20:00+26sw5886100 4.0 1010453